Powrót do katalogu

ARIANE 5 R/B

AktywnyHEO
NORAD 37394·ROCKET BODY·🇫🇷 France

Wystrzelony Apr 22, 2011 z Guiana Space Centre

Loading…

Następne Przeloty (najbliższe 24 godziny)

TLE

ŚwieżeSource: Space-Track

Epoka: Sep 14, 2026, 10:30 UTC

1 37394U 11016C   26257.43811913  .00002698  00000-0  40708-3 0  9994
2 37394   5.5868  38.9506 6600421  50.1316 351.4230  3.19297746149679

Śledź ARIANE 5 R/B w czasie rzeczywistym z AllMySat

Download on the App Store